Latest Coastal Weather Observations for Holmes Reef

IDQ60701

Issued at 6:13 pm EST Monday 25 July 2016 (issued every 10 minutes, with the page automatically refreshed every 10 minutes)

About coastal observations | Map of coastal stations | Coastal observations for QLD | Marine services | Other Formats
Station Details ID: 200732 Name: HOLMES REEF Lat: -16.47 Lon: 147.87 Height: 1.9 m
Data from the previous 72 hours. | See also: Recent months at Holmes Reef
Date/Time
EST
Temp
°C
Wind Pressure Rain since
9am
mm
Weather Cloud Vis
km
Sea
Height
m
Swell
Dir  Spd
kts
Gust
kts
hPa Trend Height
m
Period
s
Dir
25/06:00pm 25.2 SE 14 16 1013.4 - - - - - - - - -
25/05:30pm 25.3 SE 15 18 1013.4 - - - - - - - - -
25/05:15pm 25.4 SE 15 - 1013.2 - - - - - - - - -
25/05:00pm 25.3 SE 14 17 1013.4 - - - - - - - - -
25/04:30pm 25.6 SE 14 17 1013.3 - - - - - - - - -
25/04:15pm 25.5 SSE 15 - 1012.9 - - - - - - - - -
25/04:00pm 25.4 SE 16 19 1013.0 - - - - - - - - -
25/03:30pm 25.5 SE 15 17 1013.2 - - - - - - - - -
25/03:15pm 25.3 SSE 16 - 1012.9 - - - - - - - - -
25/03:00pm 25.5 SSE 16 19 1013.3 - - - - - - - - -
25/02:30pm 25.5 SE 17 19 1013.4 - - - - - - - - -
25/02:15pm 25.4 SSE 16 - 1013.2 - - - - - - - - -
25/02:00pm 25.4 SSE 16 19 1013.6 - - - - - - - - -
25/01:30pm 25.5 SSE 16 20 1013.9 - - - - - - - - -
25/01:15pm 25.4 SSE 16 - 1013.8 - - - - - - - - -
25/01:00pm 25.5 SSE 15 18 1014.3 - - - - - - - - -
25/12:30pm 25.3 SSE 15 18 1014.6 - - - - - - - - -
25/12:15pm 25.3 SE 15 - 1014.5 - - - - - - - - -
25/12:00pm 25.2 SE 15 17 1015.0 - - - - - - - - -
25/11:30am 25.2 SE 14 17 1015.3 - - - - - - - - -
25/11:15am 25.2 SE 14 - 1015.2 - - - - - - - - -
25/11:00am 25.3 SE 13 15 1015.8 - - - - - - - - -
25/10:30am 25.3 SE 13 15 1016.0 - - - - - - - - -
25/10:15am 25.2 SE 14 - 1015.7 - - - - - - - - -
25/10:00am 25.2 SE 15 18 1016.2 - - - - - - - - -
25/09:30am 25.2 SE 14 16 1016.1 - - - - - - - - -
25/09:15am 25.2 SE 14 - 1015.8 - - - - - - - - -
25/09:00am 25.2 SE 14 15 1016.1 - - - - - - - - -
25/08:30am 25.1 ESE 13 15 1016.0 - - - - - - - - -
25/08:15am 25.1 ESE 13 - 1015.6 - - - - - - - - -
25/08:00am 25.1 ESE 14 16 1015.8 - - - - - - - - -
25/07:30am 24.9 SE 12 15 1015.5 - - - - - - - - -
25/07:15am 24.7 SE 13 - 1015.0 - - - - - - - - -
25/07:00am 24.7 SE 14 16 1015.1 - - - - - - - - -
25/06:30am 24.6 SE 13 15 1014.8 - - - - - - - - -
25/06:15am 24.6 SE 12 - 1014.3 - - - - - - - - -
25/06:00am 24.7 SE 12 14 1014.4 - - - - - - - - -
25/05:30am 24.6 ESE 13 14 1014.0 - - - - - - - - -
25/05:15am 24.6 ESE 12 - 1013.7 - - - - - - - - -
25/05:00am 24.6 SE 13 15 1013.8 - - - - - - - - -
25/04:30am 24.5 SE 14 16 1013.5 - - - - - - - - -
25/04:15am 24.6 SE 14 - 1013.3 - - - - - - - - -
25/04:00am 24.5 ESE 15 17 1013.6 - - - - - - - - -
25/03:30am 24.6 SE 13 16 1013.5 - - - - - - - - -
25/03:15am 24.6 SE 13 - 1013.3 - - - - - - - - -
25/03:00am 24.7 SE 13 15 1013.7 - - - - - - - - -
25/02:30am 24.6 ESE 13 16 1013.9 - - - - - - - - -
25/02:15am 24.6 ESE 14 - 1013.7 - - - - - - - - -
25/02:00am 24.6 ESE 14 16 1014.1 - - - - - - - - -
25/01:30am 24.7 ESE 14 16 1014.3 - - - - - - - - -
25/01:15am 24.6 SE 13 - 1014.2 - - - - - - - - -
25/01:00am 24.7 SE 12 14 1014.6 - - - - - - - - -
25/12:30am 24.7 ESE 12 15 1015.0 - - - - - - - - -
25/12:15am 24.7 ESE 12 - 1014.7 - - - - - - - - -
25/12:00am 24.8 ESE 12 14 1015.0 - - - - - - - - -
 
Date/Time
EST
Temp
°C
Wind Pressure Rain since
9am
mm
Weather Cloud Vis
km
Sea
Height
m
Swell
Dir  Spd
kts
Gust
kts
hPa Trend Height
m
Period
s
Dir
24/11:30pm 24.8 SE 12 15 1015.1 - - - - - - - - -
24/11:15pm 24.7 SE 12 - 1014.9 - - - - - - - - -
24/11:00pm 24.7 ESE 11 13 1015.2 - - - - - - - - -
24/10:30pm 24.8 SE 11 13 1015.3 - - - - - - - - -
24/10:15pm 24.9 ESE 11 - 1015.1 - - - - - - - - -
24/10:00pm 24.8 ESE 12 14 1015.4 - - - - - - - - -
24/09:30pm 24.8 ESE 12 13 1015.3 - - - - - - - - -
24/09:15pm 24.7 ESE 11 - 1014.9 - - - - - - - - -
24/09:00pm 24.8 ESE 11 12 1015.2 - - - - - - - - -
24/08:30pm 24.8 SE 11 13 1015.0 - - - - - - - - -
24/08:15pm 24.8 SE 12 - 1014.5 - - - - - - - - -
24/08:00pm 24.8 SE 12 14 1014.6 - - - - - - - - -
24/07:30pm 24.8 SE 11 13 1014.3 - - - - - - - - -
24/07:15pm 24.7 SE 11 - 1013.9 - - - - - - - - -
24/07:00pm 24.7 SE 11 14 1014.1 - - - - - - - - -
24/06:30pm 24.7 SE 11 14 1013.8 - - - - - - - - -
24/06:15pm 24.7 SE 12 - 1013.4 - - - - - - - - -
24/06:00pm 24.8 SE 11 13 1013.6 - - - - - - - - -
24/05:30pm 24.9 SE 11 13 1013.1 - - - - - - - - -
24/05:15pm 25.0 SE 11 - 1012.7 - - - - - - - - -
24/05:00pm 25.0 SSE 12 14 1013.0 - - - - - - - - -
24/04:30pm 25.2 SE 12 14 1012.9 - - - - - - - - -
24/04:15pm 25.2 SSE 12 - 1012.5 - - - - - - - - -
24/04:00pm 25.2 SSE 11 13 1012.8 - - - - - - - - -
24/03:30pm 25.2 SSE 12 14 1012.8 - - - - - - - - -
24/03:15pm 25.2 SSE 12 - 1012.5 - - - - - - - - -
24/03:00pm 25.4 SSE 10 12 1013.0 - - - - - - - - -
24/02:30pm 25.2 SSE 11 14 1013.2 - - - - - - - - -
24/02:15pm 25.0 SSE 11 - 1013.0 - - - - - - - - -
24/02:00pm 25.1 SSE 11 13 1013.3 - - - - - - - - -
24/01:30pm 25.1 SSE 11 14 1013.6 - - - - - - - - -
24/01:15pm 25.2 SSE 11 - 1013.5 - - - - - - - - -
24/01:00pm 25.2 SSE 11 14 1014.0 - - - - - - - - -
24/12:30pm 25.3 SSE 11 13 1014.3 - - - - - - - - -
24/12:15pm 25.0 SE 11 - 1014.1 - - - - - - - - -
24/12:00pm 25.0 SE 11 13 1014.6 - - - - - - - - -
24/11:30am 25.1 SE 11 14 1014.9 - - - - - - - - -
24/11:15am 25.1 SE 11 - 1014.7 - - - - - - - - -
24/11:00am 25.1 SE 10 12 1015.2 - - - - - - - - -
24/10:30am 25.1 SE 11 13 1015.3 - - - - - - - - -
24/10:15am 25.0 SE 11 - 1015.2 - - - - - - - - -
24/10:00am 25.1 SE 11 13 1015.6 - - - - - - - - -
24/09:30am 25.1 SE 10 13 1015.6 - - - - - - - - -
24/09:15am 25.0 SE 11 - 1015.3 - - - - - - - - -
24/09:00am 25.0 SE 11 13 1015.5 - - - - - - - - -
24/08:30am 25.1 SE 10 12 1015.2 - - - - - - - - -
24/08:15am 24.9 SE 9 - 1014.7 - - - - - - - - -
24/08:00am 25.0 SE 10 12 1014.9 - - - - - - - - -
24/07:30am 24.9 SE 9 11 1014.6 - - - - - - - - -
24/07:15am 24.7 SE 9 - 1014.0 - - - - - - - - -
24/07:00am 24.6 ESE 10 11 1014.2 - - - - - - - - -
24/06:30am 24.4 ESE 9 11 1013.8 - - - - - - - - -
24/06:15am 24.4 ESE 9 - 1013.4 - - - - - - - - -
24/06:00am 24.4 ESE 9 11 1013.7 - - - - - - - - -
24/05:30am 24.4 ESE 9 12 1013.5 - - - - - - - - -
24/05:15am 24.4 ESE 9 - 1013.1 - - - - - - - - -
24/05:00am 24.4 ESE 11 13 1013.3 - - - - - - - - -
24/04:30am 24.5 ESE 12 14 1013.1 - - - - - - - - -
24/04:15am 24.5 ESE 12 - 1012.8 - - - - - - - - -
24/04:00am 24.5 E 11 13 1013.1 - - - - - - - - -
24/03:30am 24.5 ESE 11 13 1013.0 - - - - - - - - -
24/03:15am 24.6 E 11 - 1012.7 - - - - - - - - -
24/03:00am 24.6 E 9 11 1013.1 - - - - - - - - -
24/02:30am 24.5 ESE 9 11 1013.5 - - - - - - - - -
24/02:15am 24.6 ESE 9 - 1013.4 - - - - - - - - -
24/02:00am 24.5 ESE 9 11 1013.6 - - - - - - - - -
24/01:30am 24.5 ESE 12 14 1013.8 - - - - - - - - -
24/01:15am 24.7 ESE 11 - 1013.6 - - - - - - - - -
24/01:00am 24.6 ESE 11 13 1014.0 - - - - - - - - -
24/12:30am 24.7 ESE 11 13 1014.0 - - - - - - - - -
24/12:15am 24.6 ESE 12 - 1013.6 - - - - - - - - -
24/12:00am 24.7 SE 12 13 1013.8 - - - - - - - - -
 
Date/Time
EST
Temp
°C
Wind Pressure Rain since
9am
mm
Weather Cloud Vis
km
Sea
Height
m
Swell
Dir  Spd
kts
Gust
kts
hPa Trend Height
m
Period
s
Dir
23/11:30pm 24.6 ESE 12 14 1013.9 - - - - - - - - -
23/11:15pm 24.6 ESE 11 - 1013.7 - - - - - - - - -
23/11:00pm 24.7 ESE 12 14 1014.1 - - - - - - - - -
23/10:30pm 24.8 SE 11 15 1014.2 - - - - - - - - -
23/10:15pm 24.7 SE 11 - 1013.9 - - - - - - - - -
23/10:00pm 24.8 SE 11 13 1014.2 - - - - - - - - -
23/09:30pm 24.8 SE 11 13 1014.0 - - - - - - - - -
23/09:15pm 24.8 ESE 11 - 1013.6 - - - - - - - - -
23/09:00pm 24.8 ESE 12 14 1013.9 - - - - - - - - -
23/08:30pm 25.0 SE 12 15 1013.6 - - - - - - - - -
23/08:15pm 24.9 SE 12 - 1013.1 - - - - - - - - -
23/08:00pm 25.0 SE 12 14 1013.3 - - - - - - - - -
23/07:30pm 24.9 SE 12 13 1013.1 - - - - - - - - -
23/07:15pm 24.9 SE 12 - 1012.7 - - - - - - - - -
23/07:00pm 24.9 SE 12 14 1012.8 - - - - - - - - -
23/06:30pm 24.9 SE 13 15 1012.7 - - - - - - - - -
23/06:15pm 24.9 SE 12 - 1012.2 - - - - - - - - -
23/06:00pm 24.9 SE 12 14 1012.4 - - - - - - - - -
23/05:30pm 25.0 SE 13 15 1012.1 - - - - - - - - -
23/05:15pm 25.1 SE 13 - 1011.7 - - - - - - - - -
23/05:00pm 25.1 SE 13 14 1012.0 - - - - - - - - -
23/04:30pm 25.2 SE 12 14 1011.9 - - - - - - - - -
23/04:15pm 25.1 SE 12 - 1011.5 - - - - - - - - -
23/04:00pm 25.3 ESE 13 15 1011.7 - - - - - - - - -
23/03:30pm 25.3 ESE 12 13 1011.6 - - - - - - - - -
23/03:15pm 25.3 ESE 12 - 1011.3 - - - - - - - - -
23/03:00pm 25.4 ESE 11 13 1011.7 - - - - - - - - -
23/02:30pm 25.3 ESE 11 13 1012.0 - - - - - - - - -
23/02:15pm 25.5 ESE 11 - 1011.9 - - - - - - - - -
23/02:00pm 25.5 ESE 10 13 1012.4 - - - - - - - - -
23/01:30pm 25.5 ESE 10 11 1012.7 - - - - - - - - -
23/01:15pm 25.5 ESE 10 - 1012.7 - - - - - - - - -
23/01:00pm 25.5 ESE 10 11 1013.1 - - - - - - - - -
23/12:30pm 25.5 ESE 10 11 1013.4 - - - - - - - - -
23/12:15pm 25.5 SE 11 - 1013.2 - - - - - - - - -
23/12:00pm 25.4 ESE 11 12 1013.6 - - - - - - - - -
23/11:30am 25.4 ESE 11 12 1013.9 - - - - - - - - -
23/11:15am 25.5 ESE 11 - 1013.8 - - - - - - - - -
23/11:00am 25.5 ESE 12 14 1014.2 - - - - - - - - -
23/10:30am 25.5 ESE 11 13 1014.5 - - - - - - - - -
23/10:15am 25.5 ESE 12 - 1014.4 - - - - - - - - -
23/10:00am 25.7 ESE 12 14 1014.7 - - - - - - - - -
23/09:30am 25.7 ESE 12 14 1014.8 - - - - - - - - -
23/09:15am 25.7 ESE 12 - 1014.6 - - - - - - - - -
23/09:00am 25.7 ESE 12 15 1014.9 - - - - - - - - -
23/08:30am 25.7 E 12 14 1014.6 - - - - - - - - -
23/08:15am 25.6 E 13 - 1014.2 - - - - - - - - -
23/08:00am 25.5 E 13 15 1014.4 - - - - - - - - -
23/07:30am 25.4 ESE 14 17 1014.2 - - - - - - - - -
23/07:15am 25.3 E 14 - 1013.9 - - - - - - - - -
23/07:00am 25.2 E 14 16 1014.0 - - - - - - - - -
23/06:30am 25.0 ESE 15 17 1013.7 - - - - - - - - -
23/06:15am 25.0 ESE 15 - 1013.1 - - - - - - - - -
23/06:00am 24.9 ESE 15 18 1013.2 - - - - - - - - -
23/05:30am 24.9 ESE 16 18 1013.0 - - - - - - - - -
23/05:15am 24.9 ESE 15 - 1012.6 - - - - - - - - -
23/05:00am 25.0 ESE 16 18 1012.6 - - - - - - - - -
23/04:30am 24.9 ESE 16 18 1012.5 - - - - - - - - -
23/04:15am 25.0 SE 17 - 1012.1 - - - - - - - - -
23/04:00am 25.1 ESE 16 18 1012.4 - - - - - - - - -
23/03:30am 25.2 ESE 15 17 1012.6 - - - - - - - - -
23/03:15am 25.2 E 14 - 1012.3 - - - - - - - - -
23/03:00am 25.2 E 14 16 1012.7 - - - - - - - - -
23/02:30am 25.2 E 14 16 1012.8 - - - - - - - - -
23/02:15am 25.2 ESE 14 - 1012.5 - - - - - - - - -
23/02:00am 25.1 E 14 16 1012.9 - - - - - - - - -
23/01:30am 23.7 NE 7 9 1013.4 - - - - - - - - -
23/01:15am 23.7 ENE 7 - 1013.3 - - - - - - - - -
23/01:00am 24.0 SE 10 11 1013.6 - - - - - - - - -
23/12:30am 24.0 SE 14 17 1013.7 - - - - - - - - -
23/12:15am 24.1 SE 15 - 1013.5 - - - - - - - - -
23/12:00am 23.8 ESE 16 19 1013.8 - - - - - - - - -
 
Date/Time
EST
Temp
°C
Wind Pressure Rain since
9am
mm
Weather Cloud Vis
km
Sea
Height
m
Swell
Dir  Spd
kts
Gust
kts
hPa Trend Height
m
Period
s
Dir
22/11:30pm 23.8 E 15 18 1014.0 - - - - - - - - -
22/11:15pm 24.8 SE 14 - 1013.7 - - - - - - - - -
22/11:00pm 24.8 SE 14 16 1013.9 - - - - - - - - -
22/10:30pm 24.9 SE 13 16 1014.0 - - - - - - - - -
22/10:15pm 24.6 SE 12 - 1013.7 - - - - - - - - -
22/10:00pm 24.5 SE 13 15 1013.9 - - - - - - - - -
22/09:30pm 23.9 SE 16 21 1013.8 - - - - - - - - -
22/09:15pm 25.0 SE 16 - 1013.3 - - - - - - - - -
22/09:00pm 25.0 SE 16 18 1013.6 - - - - - - - - -
22/08:30pm 25.1 SE 15 18 1013.6 - - - - - - - - -
22/08:15pm 25.1 SE 14 - 1013.2 - - - - - - - - -
22/08:00pm 25.2 SE 14 17 1013.3 - - - - - - - - -
22/07:30pm 24.9 SSE 16 18 1013.2 - - - - - - - - -
22/07:15pm 25.0 SSE 16 - 1012.9 - - - - - - - - -
22/07:00pm 25.2 SSE 14 17 1013.2 - - - - - - - - -
22/06:30pm 25.0 SSE 15 17 1013.0 - - - - - - - - -
22/06:15pm 25.0 SSE 15 - 1012.7 - - - - - - - - -

Other Formats:

Comma delimited format used in spreadsheet applications
http://www.bom.gov.au/fwo/IDQ60701/IDQ60701.94289.axf

JavaScript Object Notation format (JSON) in row-major order
http://www.bom.gov.au/fwo/IDQ60701/IDQ60701.94289.json